KD8NVS-13 Weather Reports


time (UTC)temp
C
wind
direction
speed
KPH
gust
KPH
rain 1hr
cm
rain 24hr
cm
rain mn
cm
humidity
%
barometer
mb
20260503022350 5 214 0.0 0.0 0.00 0.00 0.00 75 1008.0
20260503021847 5 214 0.0 0.0 0.00 0.00 0.00 72 1008.0
20260503021343 5 214 0.0 0.0 0.00 0.00 0.00 70 1007.7
20260503020840 6 214 0.0 0.0 0.00 0.00 0.00 68 1008.0
20260503020338 6 214 0.0 0.0 0.00 0.00 0.00 67 1007.7
20260503015834 6 214 0.0 0.0 0.00 0.00 0.00 65 1008.0
20260503015332 7 214 1.6 1.6 0.00 0.00 0.00 64 1007.7
20260503014827 7 214 3.2 3.2 0.00 0.00 0.00 63 1007.7
20260503014325 7 214 3.2 3.2 0.00 0.00 0.00 63 1007.7
20260503013822 7 210 3.2 3.2 0.00 0.00 0.00 62 1007.7
20260503013320 7 210 3.2 3.2 0.00 0.00 0.00 62 1007.7
20260503012817 7 210 3.2 3.2 0.00 0.00 0.00 61 1007.7
20260503012314 7 210 3.2 3.2 0.00 0.00 0.00 60 1007.7
20260503011811 7 210 4.8 4.8 0.00 0.00 0.00 60 1007.7
20260503011308 7 162 3.2 3.2 0.00 0.00 0.00 60 1007.7
20260503010804 7 156 0.0 0.0 0.00 0.00 0.00 59 1007.7
20260503010301 7 156 3.2 3.2 0.00 0.00 0.00 58 1007.7
20260503005758 7 107 3.2 3.2 0.00 0.00 0.00 56 1007.7
20260503005256 7 258 3.2 3.2 0.00 0.00 0.00 54 1007.3
20260503004751 7 258 6.4 8.0 0.00 0.00 0.00 52 1007.7
20260503004250 7 264 8.0 9.7 0.00 0.00 0.00 51 1007.7
20260503003746 7 255 8.0 9.7 0.00 0.00 0.00 51 1007.7
20260503003244 7 264 3.2 3.2 0.00 0.00 0.00 50 1007.3
20260503002740 7 264 4.8 4.8 0.00 0.00 0.00 50 1007.7
20260503002237 7 258 6.4 8.0 0.00 0.00 0.00 50 1007.3
20260503001733 7 258 3.2 3.2 0.00 0.00 0.00 51 1007.3
20260503001230 7 258 3.2 3.2 0.00 0.00 0.00 50 1007.3
20260503000728 7 259 4.8 6.4 0.00 0.00 0.00 50 1007.3
20260503000226 8 264 6.4 6.4 0.00 0.00 0.00 55 1007.3
20260502235722 8 255 4.8 6.4 0.00 0.00 0.00 53 1007.0
20260502235220 8 270 4.8 4.8 0.00 0.00 0.00 53 1007.3
20260502234716 8 266 11.3 11.3 0.00 0.00 0.00 53 1007.0
20260502234213 8 258 3.2 3.2 0.00 0.00 0.00 52 1007.3
20260502233709 8 267 6.4 6.4 0.00 0.00 0.00 52 1007.0
20260502233206 8 252 6.4 6.4 0.00 0.00 0.00 51 1007.0
20260502232701 8 264 8.0 9.7 0.00 0.00 0.00 51 1007.0
20260502232159 8 270 4.8 6.4 0.00 0.00 0.00 52 1007.3
20260502231655 8 214 4.8 4.8 0.00 0.00 0.00 52 1007.0
20260502231153 8 258 8.0 8.0 0.00 0.00 0.00 51 1007.0
20260502230652 8 291 6.4 8.0 0.00 0.00 0.00 51 1007.0
20260502230150 8 267 6.4 6.4 0.00 0.00 0.00 52 1007.3
20260502225645 8 265 6.4 6.4 0.00 0.00 0.00 51 1007.3
20260502225143 8 123 4.8 4.8 0.00 0.00 0.00 52 1007.0
20260502224638 8 255 11.3 11.3 0.00 0.00 0.00 53 1007.3
20260502224136 8 252 8.0 9.7 0.00 0.00 0.00 53 1007.3
20260502223633 8 246 4.8 6.4 0.00 0.00 0.00 52 1007.0
20260502223131 8 252 6.4 8.0 0.00 0.00 0.00 54 1007.0
20260502222628 8 264 12.9 12.9 0.00 0.00 0.00 53 1007.0
20260502222124 8 264 8.0 9.7 0.00 0.00 0.00 51 1007.0
20260502221615 8 258 4.8 4.8 0.00 0.00 0.00 44 1007.0
20260502221112 9 252 6.4 6.4 0.00 0.00 0.00 45 1006.7
20260502220609 8 288 3.2 3.2 0.00 0.00 0.00 48 1006.7
20260502220105 8 265 8.0 8.0 0.00 0.00 0.00 49 1006.7
20260502215602 9 264 8.0 9.7 0.00 0.00 0.00 50 1007.0
20260502215059 9 265 6.4 8.0 0.00 0.00 0.00 50 1006.7
20260502214556 9 112 3.2 3.2 0.00 0.00 0.00 50 1007.0
20260502214053 9 276 4.8 4.8 0.00 0.00 0.00 53 1007.0
20260502213550 8 118 3.2 3.2 0.00 0.00 0.00 54 1007.0
20260502213048 8 108 8.0 9.7 0.00 0.00 0.00 55 1007.0
20260502212546 8 276 6.4 6.4 0.00 0.00 0.00 55 1007.0
20260502212044 9 246 12.9 12.9 0.00 0.00 0.00 50 1007.0
20260502211539 8 270 6.4 6.4 0.00 0.00 0.00 50 1006.7
20260502211037 9 258 9.7 9.7 0.00 0.00 0.00 50 1006.7
20260502210533 8 266 9.7 9.7 0.00 0.00 0.00 49 1006.7
20260502210031 8 120 8.0 9.7 0.00 0.00 0.00 53 1006.7
20260502205527 8 246 4.8 4.8 0.00 0.00 0.00 54 1006.7
20260502205024 8 252 9.7 11.3 0.00 0.00 0.00 54 1006.7
20260502204521 8 106 11.3 11.3 0.00 0.00 0.00 57 1006.7
20260502204019 8 299 6.4 6.4 0.00 0.00 0.00 55 1006.7
20260502203515 9 270 6.4 8.0 0.00 0.00 0.00 45 1006.7
20260502203012 9 246 16.1 16.1 0.00 0.00 0.00 42 1006.7
20260502202508 10 258 14.5 16.1 0.00 0.00 0.00 43 1006.7
20260502202007 9 258 9.7 9.7 0.00 0.00 0.00 44 1006.7
20260502201503 10 270 8.0 9.7 0.00 0.00 0.00 47 1006.7
20260502200959 9 247 6.4 6.4 0.00 0.00 0.00 46 1007.0
20260502200455 9 258 9.7 11.3 0.00 0.00 0.00 48 1007.0
20260502195953 9 258 9.7 11.3 0.00 0.00 0.00 48 1007.0
20260502195450 9 266 3.2 3.2 0.00 0.00 0.00 49 1006.7
20260502194946 9 222 0.0 0.0 0.00 0.00 0.00 50 1007.0
20260502194443 8 312 6.4 6.4 0.00 0.00 0.00 49 1007.0
20260502193939 8 254 14.5 16.1 0.00 0.00 0.00 48 1007.0
20260502193437 9 266 9.7 9.7 0.00 0.00 0.00 48 1007.0
20260502192932 9 259 8.0 9.7 0.00 0.00 0.00 46 1007.0
20260502192429 9 258 11.3 12.9 0.00 0.00 0.00 45 1007.0
20260502191926 8 264 12.9 12.9 0.00 0.00 0.00 45 1007.0
20260502191424 8 255 11.3 11.3 0.00 0.00 0.00 45 1007.0
20260502190921 9 270 4.8 4.8 0.00 0.00 0.00 47 1007.3
20260502190418 8 264 8.0 9.7 0.00 0.00 0.00 49 1007.3
20260502185914 8 264 4.8 6.4 0.00 0.00 0.00 48 1007.0
20260502185410 8 264 9.7 9.7 0.00 0.00 0.00 49 1007.3
20260502184907 8 258 9.7 9.7 0.00 0.00 0.00 50 1007.3
20260502184403 8 258 9.7 9.7 0.00 0.00 0.00 50 1007.3
20260502183859 8 255 12.9 16.1 0.00 0.00 0.00 50 1007.3
20260502183355 8 246 4.8 4.8 0.00 0.00 0.00 47 1007.3
20260502182851 8 270 8.0 8.0 0.00 0.00 0.00 47 1007.3
20260502182347 8 258 11.3 11.3 0.00 0.00 0.00 47 1007.3
20260502181843 8 126 3.2 3.2 0.00 0.00 0.00 48 1007.3
20260502181342 9 252 17.7 19.3 0.00 0.00 0.00 47 1007.3
20260502180839 9 258 11.3 11.3 0.00 0.00 0.00 44 1007.3
20260502180336 8 280 12.9 14.5 0.00 0.00 0.00 46 1007.3
20260502170254 8 246 16.1 17.7 0.00 0.00 0.00 47 1007.7
20260502164237 8 264 16.1 17.7 0.00 0.00 0.00 52 1007.7
20260502163732 8 255 14.5 16.1 0.00 0.00 0.00 51 1007.7
20260502163229 8 270 4.8 6.4 0.00 0.00 0.00 50 1007.7
20260502162726 8 276 8.0 9.7 0.00 0.00 0.00 50 1007.7
20260502162222 8 254 9.7 11.3 0.00 0.00 0.00 54 1008.0
20260502161719 8 281 4.8 4.8 0.00 0.00 0.00 52 1008.0
20260502161215 8 258 14.5 16.1 0.00 0.00 0.00 50 1008.0
20260502160714 7 264 11.3 11.3 0.00 0.00 0.00 52 1007.7
20260502160213 8 267 9.7 11.3 0.00 0.00 0.00 54 1007.7
20260502152127 7 265 9.7 9.7 0.00 0.00 0.00 56 1007.7
20260502151624 7 264 0.0 0.0 0.00 0.00 0.00 59 1007.7
20260502151121 7 254 6.4 6.4 0.00 0.00 0.00 58 1007.7
20260502150619 7 265 6.4 8.0 0.00 0.00 0.00 56 1008.0
20260502150115 7 264 11.3 11.3 0.00 0.00 0.00 58 1008.0
20260502130503 4 264 11.3 11.3 0.00 0.00 0.00 76 1007.7
20260502123446 3 265 11.3 11.3 0.00 0.00 0.00 80 1007.3
20260502122943 3 264 11.3 11.3 0.00 0.00 0.00 81 1007.3
20260502122439 3 265 8.0 9.7 0.00 0.00 0.00 81 1007.3
20260502121938 3 265 3.2 3.2 0.00 0.00 0.00 84 1007.3
20260502121434 3 272 4.8 4.8 0.00 0.00 0.00 84 1007.3
20260502120931 2 272 4.8 4.8 0.00 0.00 0.00 85 1007.3
20260502120428 2 270 8.0 9.7 0.00 0.00 0.00 93 1007.3
20260502115925 2 270 4.8 4.8 0.00 0.00 0.00 97 1007.3
20260502115422 2 265 0.0 0.0 0.00 0.00 0.00 98 1007.3
20260502114918 2 265 0.0 0.0 0.00 0.00 0.00 97 1007.0
20260502114415 3 265 0.0 0.0 0.00 0.00 0.00 98 1007.0
20260502113913 3 265 0.0 0.0 0.00 0.00 0.00 98 1007.0
20260502113410 4 265 0.0 0.0 0.00 0.00 0.00 98 1007.0
20260502112909 3 265 0.0 0.0 0.00 0.00 0.00 98 1007.0
20260502112405 2 265 0.0 0.0 0.00 0.00 0.00 98 1007.0
20260502111903 1 265 0.0 0.0 0.00 0.00 0.00 98 1007.0
20260502111400 1 265 0.0 0.0 0.00 0.00 0.00 98 1007.3
20260502110857 0 265 0.0 0.0 0.00 0.00 0.00 98 1007.0
20260502110355 0 265 0.0 0.0 0.00 0.00 0.00 98 1007.0
20260502105852 0 265 0.0 0.0 0.00 0.00 0.00 98 1007.0
20260502105349 0 265 0.0 0.0 0.00 0.00 0.00 98 1007.0
20260502104847 0 265 0.0 0.0 0.00 0.00 0.00 98 1007.0
20260502104344 0 265 0.0 0.0 0.00 0.00 0.00 98 1007.0
20260502103841 0 265 0.0 0.0 0.00 0.00 0.00 98 1007.0
20260502103339 0 265 0.0 0.0 0.00 0.00 0.00 98 1007.0
20260502102836 0 265 0.0 0.0 0.00 0.00 0.00 98 1007.0
20260502102332 0 265 0.0 0.0 0.00 0.00 0.00 98 1007.0
20260502101830 0 265 0.0 0.0 0.00 0.00 0.00 98 1007.0
20260502101328 0 265 0.0 0.0 0.00 0.00 0.00 98 1007.0
20260502100826 0 265 0.0 0.0 0.00 0.00 0.00 98 1007.0
20260502100325 0 265 0.0 0.0 0.00 0.00 0.00 98 1006.7
20260502091259 1 265 0.0 0.0 0.00 0.00 0.00 98 1007.0
20260502090756 1 265 0.0 0.0 0.00 0.00 0.00 98 1007.0
20260502090253 1 265 0.0 0.0 0.00 0.00 0.00 98 1007.0
20260502071148 2 265 0.0 0.0 0.00 0.00 0.00 97 1006.7
20260502070646 2 265 0.0 0.0 0.00 0.00 0.00 97 1006.7
20260502070144 1 265 0.0 0.0 0.00 0.00 0.00 97 1007.0
20260502065642 1 265 0.0 0.0 0.00 0.00 0.00 97 1006.7
20260502065138 2 265 0.0 0.0 0.00 0.00 0.00 97 1006.7
20260502064638 1 265 0.0 0.0 0.00 0.00 0.00 97 1007.0
20260502064134 1 265 0.0 0.0 0.00 0.00 0.00 97 1007.0
20260502063632 2 265 0.0 0.0 0.00 0.00 0.00 97 1007.0
20260502063130 2 265 0.0 0.0 0.00 0.00 0.00 97 1007.0
20260502062626 2 265 0.0 0.0 0.00 0.00 0.00 97 1007.0
20260502062124 2 265 0.0 0.0 0.00 0.00 0.00 97 1007.0
20260502061622 2 265 0.0 0.0 0.00 0.00 0.00 97 1007.0
20260502061120 2 265 0.0 0.0 0.00 0.00 0.00 97 1007.0
20260502060619 2 265 0.0 0.0 0.00 0.00 0.00 97 1007.0
20260502060116 2 265 0.0 0.0 0.00 0.00 0.00 97 1007.0
20260502055614 2 265 0.0 0.0 0.00 0.00 0.00 97 1007.0
20260502055112 2 265 0.0 0.0 0.00 0.00 0.00 97 1007.0
20260502054611 2 265 0.0 0.0 0.00 0.00 0.00 97 1007.0
20260502054108 2 265 0.0 0.0 0.00 0.00 0.00 97 1007.0
20260502053604 2 265 0.0 0.0 0.00 0.00 0.00 97 1007.0
20260502053102 2 265 0.0 0.0 0.00 0.00 0.00 97 1007.0
20260502052600 2 265 0.0 0.0 0.00 0.00 0.00 97 1007.3
20260502052058 2 265 0.0 0.0 0.00 0.00 0.00 97 1007.0
20260502051556 3 265 0.0 0.0 0.00 0.00 0.00 97 1007.0
20260502051054 3 265 0.0 0.0 0.00 0.00 0.00 97 1007.3
20260502050549 3 265 0.0 0.0 0.00 0.00 0.00 97 1007.0
20260502050046 2 265 0.0 0.0 0.00 0.00 0.00 97 1007.3
20260502045543 3 265 0.0 0.0 0.00 0.00 0.00 97 1007.0
20260502045040 3 265 0.0 0.0 0.00 0.00 0.00 97 1007.0
20260502044537 3 265 0.0 0.0 0.00 0.00 0.00 97 1007.0
20260502044033 3 265 0.0 0.0 0.00 0.00 0.00 97 1007.0
20260502043531 3 265 0.0 0.0 0.00 0.00 0.00 97 1007.0
20260502043027 3 264 3.2 3.2 0.00 0.00 0.00 97 1007.0
20260502042522 3 264 0.0 0.0 0.00 0.00 0.00 96 1007.0
20260502042020 3 264 0.0 0.0 0.00 0.00 0.00 96 1007.0
20260502041518 3 112 0.0 0.0 0.00 0.00 0.00 96 1007.0
20260502041015 3 112 0.0 0.0 0.00 0.00 0.00 96 1007.3
20260502040511 3 112 0.0 0.0 0.00 0.00 0.00 96 1007.3
20260502040009 3 112 0.0 0.0 0.00 0.00 0.00 96 1007.0
20260502035504 3 112 0.0 0.0 0.00 0.23 0.23 96 1007.3
20260502035002 3 112 0.0 0.0 0.00 0.23 0.23 96 1007.3
20260502034459 3 112 0.0 0.0 0.00 0.23 0.23 96 1007.3
20260502033958 3 112 0.0 0.0 0.00 0.23 0.23 96 1007.3
20260502033455 4 112 0.0 0.0 0.00 0.23 0.23 95 1007.3
20260502032952 4 112 0.0 0.0 0.00 0.23 0.23 95 1007.3
20260502032448 3 112 0.0 0.0 0.00 0.23 0.23 95 1007.3
20260502031945 3 112 0.0 0.0 0.00 0.23 0.23 95 1007.3
20260502031444 3 112 0.0 0.0 0.00 0.23 0.23 95 1007.3
20260502030941 4 112 0.0 0.0 0.00 0.23 0.23 94 1007.3
20260502030439 4 112 0.0 0.0 0.00 0.23 0.23 94 1007.0
20260502025931 4 112 0.0 0.0 0.03 0.23 0.23 94 1007.3
20260502025428 4 112 0.0 0.0 0.03 0.23 0.23 94 1007.0
20260502024926 4 112 0.0 0.0 0.03 0.23 0.23 93 1007.0
20260502024424 5 112 0.0 0.0 0.03 0.23 0.23 93 1007.0
20260502023922 5 112 0.0 0.0 0.03 0.23 0.23 92 1007.0
20260502023419 5 112 0.0 0.0 0.03 0.23 0.23 92 1007.0
20260502022916 5 112 0.0 0.0 0.03 0.23 0.23 91 1007.0